DELTA 1 DEB, 2706

Orbit data source: Space-Track

DELTA 1 DEB, 2706 is space debris in SSO originally from a launch on Thu, 26 Jan 1967 UTC launched from the Air Force Western Test Range (AFWTR). Debris objects in space refer to the collection of defunct objects orbiting the Earth. Examples of debris include non-operational satellites, rocket bodies, and fragments generated from explosions, collisions, or faulty payload assembly.

Loading next visibility...
Identifier
2706, 1967-006C
Orbit
SSO
Country
Flag of USUS
Related business
Manufacturer
Unknown
Mission
Spacecraft
Bus & Motor
Unknown
Mass
Unknown
Launch date (UTC)
1967-01-26 (59 years ago)
Launch vehicle
Unknown
Launch site
Air Force Western Test Range (AFWTR)
Object type
Payload
Rocket body
Debris
Shape & HBR
Unknown shape, 0.1 m
Radar Cross Section
Small (<0.1 m²)

Expand to show TLE details & history
Last TLE update: 4 days ago

TLE from 4 days ago
0 DELTA 1 DEB
1  2706U 67006C   25298.01685838 -.00000021  00000-0  15827-3 0  9999
2  2706 102.2098 323.4497 0035240 148.4716 241.1480 12.60925523702910
Epoch: 2025-10-25T00:24Z
TLE epoch observation values (Epoch: 2025-10-25T00:24:16.564Z)
Latitude
28.58704°
Longitude
-83.01102°
Altitude
1,435.696 km
Speed
7.14 km/s
True Right ascension
21h 06m 50s
True Declination
28° 27' 19"
Sunlit
Object was in daylight at epoch
Visualization orbit readout
Latitude
Unknown
Longitude
Unknown
Altitude
Unknown
Speed
Unknown
Apparent Right ascension
Unknown
Apparent Declination
Unknown
Sunlit
N/A
Visualization observer readout
Local Sidereal Time
11:11:42
Azimuth
Unknown
Elevation
Unknown
Doppler factor
Unknown
Orbital elements
Apogee altitude
1,444.156 km
Perigee altitude
1,389.218 km
Semi-major axis
7,794.824 km
Eccentricity
0.00352
Inclination
102.2098°
RAAN
323.4497°
Arg. of periapsis
148.4716°
True anomaly
240.79506°
Mean anomaly
241.148°
Eccentric anomaly
240.97145°
Mean motion
3.1538 °/min
Orbital period
114.15 mins
BSTAR
0.00015827
Loading maneuver chart data...
Computing Atmospheric mass density...
Loading historical data...
Loading historical data...
Loading historical data...
Loading historical data...
Loading historical data...
Loading historical data...
Loading historical data...
Other satellites on launch #6 in the year 1967 (1967-01-26 UTC)

Documentation

Showing up to 5 results
|